Погода в Сосьве

Погода в Сосьве : погода сейчас, прогноз погоды и архив. Всё, что Вы хотите узнать о погоде в Сосьве!

Хотите узнать прогноз погоды в Сосьве? Тогда Вам сюда: Погода в Сосьве

Поиск расширенной информации на нашем сайте:

Другие новости

Новости СМИ2

Главная страница сайта

Новости сайта

02.10.2013

Напоминаем, что на нашем новом сайте вы можете получить высокодетализированные прогнозы погоды по пунктам России, СНГ и мира (включающие важные для авиации метеовеличины, такие как направление и скорость ветра, видимость, явления погоды, количество и форма облачности, нижняя и верхняя граница облачности), а также ознакомиться с разнообразными материалами по авиационной метеорологии и подборкой полезных ссылок на эту тему.

Сайт Метеоцентр.Азия посвящён разработке технологий оптимизации авиаметеорологического обслуживания, включая проектирование и перспективное создание нескольких автоматизированных авиаметеорологических систем:
- система выпуска высокодетальных прогностических карт явлений погоды для нижнего воздушного пространства по России и ближнему зарубежью;
- система верификации прогнозов TAF (выпускаемых синоптиками официальных АМСГ РФ и ближнего зарубежья) и AUTOTAF (выпускаемых сайтом Метеоцентр.Азия) - выявление ошибок, онлайн-сопоставление с фактической погодой METAR, автоматическое внесение коррективов в прогнозы при резком отклонении фактической погоды от прогноза, подсчёт оправдываемости прогнозов по элементам и в целом;
- система обработки, анализа и отображения авиаметеорологической информации для применения провайдерами метеорологической информации.

Рекомендуем: Видео логопедических занятий постановка звука.

Погода в Сосьве - сегодня

Время (UTC), дата Ветер
(°,м/с) 
Видим.   Явления Облачность Т
(°С)
Тd
(°С)
f(%) Тe
(°С)
Pmin
(гПа)
dP
(гПа)
Po
(мм)
O2
(г/м3)
Тmin Tmax R s Состояние
почвы
15 26.03.17 120 (ЮВ) 20000 м    10/6 600 м верхняя 
[Sc|Cc]
+1.7 -5 61 +1  999.6  -3.1  747  300    +4.8       
18 26.03.17 100 (В) 4000 м  слаб. снег  10/0 средняя 
[As op]
-0.2 -1 94 -1  996.3  -3.3  745  300           
21 26.03.17 110 (В) 2000 м  снег  10/0 средняя 
[As op]
-0.8 -1.4 96 -2  991.9  -4.4  741  300           
00 27.03.17 140 (ЮВ) 4000 м  слаб. снег  10/0 средняя 
[As op]
-0.8 -1.3 96 -3  988.3  -3.6  739  299           
03 27.03.17 210 (ЮЗ) 2000 м  снег  10/0 средняя 
[As op]
-0.6 -1.1 96 -1  987.1  -1.1  738  298  -0.9    35  равномерный
сухой снег
100% 
06 27.03.17 220 (ЮЗ) 20000 м  {снег}  9/9 600 м кучево-дожд. 
[Cb cap]
+1 -2.2 79 -1  987.9  0.8  738  297           
09 27.03.17 190 (Ю) 20000 м    8/8 600 м кучево-дожд. 
[Cb cap]
+2.4 -2.4 71 +2  988.5  0.6  739  295           
12 27.03.17 200 (Ю) 1{12}  4000 м  слаб. ливневой снег  9/9 600 м кучево-дожд. 
[Cb cap]
+0.3 -0.4 95 +1  989.3  0.8  739  298           
15 27.03.17 200 (Ю) 20000 м  {ливн. осадки}  8/0 средняя 
[Ac As]
-0.5 -2.3 88 -1  990.8  1.5  741  299    +2.7     
18 27.03.17 190 (Ю) 20000 м  {ливн. осадки}  ясно 
-1.4 -3.5 86 -3  991.1  0.3  741  300           
21 27.03.17 210 (ЮЗ) 20000 м    ясно 
-0.7 -3.2 83 -3  990.4  -0.6  740  299           
00 28.03.17 180 (Ю) 20000 м    10/0 средняя 
[Ac As]
-1.5 -4.5 80 -2  989.7  -0.7  740  300           
03 28.03.17 160 (Ю) 20000 м    10/0 средняя 
[Ac As]
-1.3 -4.5 79 -3  989.6  0.1  740  300  -2.6      39  равномерный
мокрый или
старый снег
100% 
06 28.03.17 180 (Ю) 20000 м    10/10 600 м кучево-дожд. 
[Cb calv]
+1.4 -3.4 70 989.3  -0.2  740  297           
09 28.03.17 200 (Ю) 20000 м    10/10 600 м кучево-дожд. 
[Cb calv]
+2.7 -3.2 65 +1  989  -0.3  739  295           
12 28.03.17 200 (Ю) 20000 м    10/10 600 м кучево-дожд. 
[Cb calv]
+2.3 -3 68 +2  989  739  296           
15 28.03.17 170 (Ю) 20000 м    10/10 600 м кучево-дожд. 
[Cb calv]
+0.9 -2.6 77 988.8  -0.2  739  297    +3.4       
18 28.03.17 170 (Ю) 4000 м  слаб. ливневой снег  10/10 600 м кучево-дожд. 
[Cb calv]
-0.7 -1.6 94 -2  988  -0.9  738  298           
21 28.03.17 110 (В) 20000 м  {ливн. осадки}  3/3 600 м кучево-дожд. 
[Cb calv]
-2.7 -3.3 96 -2  986.6  -1.4  737  300           
00 29.03.17 110 (В) 20000 м  {ливн. осадки}  3/3 600 м 
[Sc]
-4.9 -5.9 93 -4  985.8  -1.4  737  303           
03 29.03.17 120 (ЮВ) 20000 м    10/5 600 м верхняя 
[Cu Sc|Ci fib]
-4.8 -5.9 92 -4  985.8  737  303  -6    0.3  34  равномерный
сухой снег
100% 
06 29.03.17 200 (Ю) 20000 м  слаб. ливневой снег  10/10 600 м кучево-дожд. 
[Cb cap]
+0.5 -3 77 +1  985.7  737  297           
09 29.03.17 290 (З) 20000 м  {ливн. осадки}  9/9 600 м кучево-дожд. 
[Cb cap]
+3.1 -3.8 60 +4  986.6  0.9  737  294           
12 29.03.17 150 (ЮВ) 20000 м  в посл. час крупа{ливн. осадки}  10/10 600 м кучево-дожд. 
[Cb cap]
+2.8 -4.4 59 +4  987.7  1.1  738  295           
15 29.03.17 300 (СЗ) 4000 м  слаб. ливневой снег  10/10 600 м кучево-дожд. 
[Cb cap]
-1 -2.8 88 -2  990  1.1  740  300    +3.6  0.5     
Время (UTC), дата Ветер
(°,м/с) 
Видим.   Явления Облачность Т
(°С)
Тd
(°С)
f(%) Тe
(°С)
Pmin
(гПа)
dP
(гПа)
Po
(мм)
O2
(г/м3)
Тmin Tmax R s Состояние
почвы

Для получения пояснительной информации подведите курсор к названию столбца.

ПОГОДА в Сосьве - архив

Всё, что Вы хотите узнать о погоде в Сосьве - удобно и подробно!

Выберите нужную дату (начиная с 1 января 2015* года) и нажмите кнопку "Найти".
Будут отображены архивные сводки погоды по пункту Сосьва, начиная с указанной даты.


Отображать данные в формате CSV (для использования в таблицах Excel)


Внимание! Наш архив погоды предназначен исключительно для личного некоммерческого использования в познавательных целях. Если Вам необходимы официальные справки о состоянии погоды (для производственных, юридических, коммерческих и т.п. целей), обращайтесь в органы Росгидромета.

*Примечание: данная дата относится к архиву по метеостанциям СССР (Россия, СНГ, Балтия).
Архив по метеостанциям Зарубежной Европы и Азии (кроме Китая) хранится 10 дней, по другим регионам земного шара (Китай, Африка, Америка, Австралия, Океания) - 1 день.

Сосьва - район местоположения метеостанции


Название, широта, долгота, высота метеостанции:
Сосьва 63.6°ш. 62.1°д. 28 м над ур. моря [Российская Федерация]

Дополнительная информация

В oтличие oт бoльшинства пoгoдных сайтoв мы публикуем пoдрoбную метеoинфoрмацию в детальнoм прoфессиoнальнoм фoрмате.

Характеристики температуры и влажнoсти вoздуха измеряются на высoте 2 м в тени вдали oт зданий и деревьев.
Скoрoсть ветра измеряется на высoте 10 м (на урoвне рoста челoвека скoрoсть ветра ниже в 1.5-2 раза). Если метеoстанция нахoдится в гoрoде или в лесу, тo скoрoсть ветра занижена на 2-4 м/с пo сравнению с oткрытым местoм. Скoрoсть ветра над акватoриями крупных рек и oзёр, а также на вершинах хoлмoв на 2-5 м/с выше, чем в oбычных услoвиях.
Атмoсфернoе давление в разных тoчках местнoсти мoжет значительнo oтличаться oт давления на метеoстанции, в зависимoсти oт услoвий рельефа (при пoдъёме на 10 м давление пoнижается примернo на 1 мм рт.ст.).